Location: Anan
(43.3550°N, 0.8171°E)
Time: 12:32:24
(UTC+00:00)

Cosmos 1626 Rocket - Pass Details

Date: 14 May 2026
Orbit: 597 x 622 km, 82.5° (Epoch: 8 June)

Event Time Altitude Azimuth Distance (km) Brightness Sun altitude
Rises 20:42:00 0° 355° (N) 2,879 7.8 -14.0°
Reaches altitude 10° 20:44:15 10° 359° (N) 1,974 6.8 -14.3°
Maximum altitude 20:48:35 60° 79° (E) 703 3.6 -14.8°
Enters shadow 20:51:00 25° 153° (SSE) 1,252 4.6 -15.1°
